User: anonymous   Login
Location: Unspecified
(0.0000°N, 0.0000°E)
Time: 17:47:55
(UTC+00:00)
Language:

GONETS D1M 1 - Orbit

View from above orbital plane
View from above orbital plane
View from above satellite
View from above satellite

Ground track
Ground track

The orbit data is extracted from the following two-line orbital elements,

1 28908U 05048A   18049.66724354 +.00000041 +00000-0 +18699-3 0  9994
2 28908 082.4656 091.7591 0008511 115.6581 351.5693 12.55483741557340
Epoch (UTC): 18 February 2018 16:00:49
Eccentricity: 0.0008511
inclination: 82.4656°
perigee height: 1435 km
apogee height: 1448 km
right ascension of ascending node: 91.7591°
argument of perigee: 115.6581°
revolutions per day: 12.55483741
mean anomaly at epoch: 351.5693°
orbit number at epoch: 55734

The dashed part of the orbit path shows where the satellite is in the earth's shadow,  

DLR